Theta_e
317 317 319 320 320 321 324 326 326 328 329 329 328 329 329 330 330 331 332 332 330 329 328 328 328 327 327 326 326 326 326 326 324 324 325 326 325 324 321 316 317 323 325 324 324 322 318 317 317 313 309 310 309 309 309 308 306 304 302 301 299 296 294 293 293 292 290 290 290 290 290 290 290 290
316 317 318 319 320 320 322 324 326 327 328 329 329 327 328 330 329 329 331 330 328 327 328 328 328 327 327 326 326 325 326 326 325 324 325 324 323 322 320 316 316 321 324 324 325 323 318 317 318 314 310 310 310 308 308 307 305 303 301 300 297 294 293 293 292 291 290 290 290 290 290 290 290 290
314 316 317 317 318 320 320 322 324 326 327 329 329 327 328 330 330 328 329 329 328 327 328 328 327 327 327 326 326 326 325 325 325 324 324 323 322 321 319 316 316 319 323 324 324 323 318 316 317 314 311 311 310 308 308 306 304 301 299 297 295 293 294 293 292 291 290 290 290 290 290 290 290 290
313 315 316 317 317 318 320 320 322 323 325 327 328 328 329 329 330 329 328 328 328 328 328 328 327 327 327 326 327 327 326 325 324 323 323 323 321 320 318 316 317 321 324 325 324 323 319 316 315 314 312 312 311 309 307 305 302 299 297 295 294 294 294 292 291 291 290 291 290 290 290 290 290 289
312 313 314 315 316 317 318 319 321 322 324 325 326 327 328 328 329 329 328 328 328 328 328 328 328 327 327 327 327 328 327 325 323 322 322 322 321 319 318 318 320 323 326 326 324 323 321 318 315 313 312 312 311 309 306 304 300 297 295 294 294 294 293 292 291 290 290 291 290 290 290 290 289 289
310 311 312 312 313 314 316 317 319 321 323 325 326 327 327 328 328 329 329 329 329 329 328 328 328 328 327 327 327 328 328 326 323 322 322 322 322 320 319 321 323 324 326 326 325 324 323 320 316 313 311 311 311 308 305 302 299 296 294 294 294 293 293 292 291 290 290 290 290 290 290 290 289 289
309 310 310 311 311 312 313 314 316 318 320 324 326 327 327 328 328 329 329 330 329 329 328 328 328 328 327 327 327 328 328 328 325 323 323 323 323 321 322 323 324 325 326 326 325 325 324 321 316 312 311 311 311 307 303 300 297 295 294 294 294 293 292 292 291 290 290 290 290 290 290 290 289 289
308 309 310 310 311 311 312 313 314 315 317 320 323 325 327 328 328 329 329 329 329 329 328 327 328 328 328 327 327 327 328 328 326 324 324 324 324 324 324 324 325 325 326 326 325 323 323 320 315 312 311 311 310 307 303 299 296 295 294 294 294 293 292 292 291 290 290 290 290 290 290 290 289 289
308 308 309 309 309 311 311 312 312 313 314 317 319 322 324 326 326 328 329 329 329 329 328 328 327 327 328 327 327 327 327 327 325 324 324 324 323 324 324 324 325 325 325 324 323 321 319 317 314 311 311 311 310 307 304 298 295 295 294 294 293 293 292 292 291 290 290 290 290 290 289 289 289 289
307 308 308 309 309 309 310 310 311 312 313 315 316 318 320 322 324 325 327 328 328 328 328 328 327 327 326 326 326 327 327 326 324 321 321 321 322 324 324 323 324 324 324 322 320 319 317 315 313 311 311 311 309 308 304 298 295 295 295 294 293 293 292 292 291 290 290 289 289 289 289 289 289 288
306 307 307 308 308 309 309 310 310 311 312 313 314 316 317 319 321 322 324 326 327 327 327 327 326 326 325 325 325 326 325 325 323 320 318 317 318 321 323 323 321 320 320 319 317 317 316 314 312 310 310 310 309 308 304 297 295 295 294 293 293 292 292 292 291 290 289 289 289 289 289 289 289 288
305 305 305 306 307 307 308 309 310 310 311 311 312 313 314 315 316 318 321 323 325 326 326 326 326 325 325 325 324 324 323 320 319 319 318 317 316 317 318 319 320 318 317 316 316 315 314 313 312 310 310 309 309 307 302 296 295 295 294 294 293 292 292 291 291 290 289 289 289 289 289 289 289 288
304 304 304 304 304 305 306 307 308 309 310 311 311 311 311 312 312 313 316 319 322 324 326 327 326 325 325 324 323 322 321 319 318 318 317 316 316 315 313 313 315 316 316 315 313 313 313 313 311 310 310 309 308 305 299 295 295 294 294 295 293 292 292 291 290 290 289 289 289 289 289 289 289 289
302 303 303 303 303 304 304 304 305 306 307 308 310 310 311 311 311 310 312 314 318 321 324 326 327 325 324 323 322 322 322 320 318 317 315 314 312 310 308 308 309 311 313 313 311 311 312 312 310 309 309 308 306 301 296 295 295 294 295 296 294 292 292 291 290 290 289 289 289 289 289 289 289 288
301 301 302 302 302 302 303 303 304 304 305 305 307 309 310 310 311 311 311 311 313 317 321 323 326 326 325 323 322 322 322 319 317 316 315 313 309 307 307 306 306 308 310 310 308 308 309 309 309 308 307 307 304 299 295 295 294 294 297 297 293 292 292 291 290 289 288 289 289 289 289 288 288 288
299 300 300 301 301 302 302 302 302 303 304 304 305 306 307 308 310 310 311 311 311 314 317 320 322 324 324 324 322 321 320 318 316 315 314 312 309 307 308 307 307 308 309 308 306 305 304 304 305 305 305 305 301 297 295 295 295 296 298 296 293 292 292 291 290 289 288 289 289 288 288 288 288 288
298 298 299 299 300 300 301 301 302 302 302 303 303 304 305 306 308 309 311 311 312 313 314 316 319 320 323 324 323 321 320 317 314 313 311 310 309 308 308 309 309 308 308 307 305 303 301 301 301 301 302 301 298 295 295 295 295 297 297 294 293 294 292 291 290 289 288 288 288 288 288 288 288 288
297 297 298 298 299 299 300 300 301 301 302 302 302 303 303 304 306 308 310 311 313 313 313 314 315 317 319 322 322 322 320 316 314 313 312 311 309 308 308 309 307 305 305 307 305 302 300 299 299 299 299 298 295 295 295 294 295 297 296 294 294 293 291 291 291 291 289 288 288 288 288 288 288 288
297 297 297 297 298 298 299 299 299 300 300 301 301 302 302 303 303 305 307 308 309 311 312 313 314 315 316 318 320 322 321 318 315 315 314 312 309 307 306 306 304 302 303 305 304 302 300 298 297 297 297 295 294 294 294 294 295 297 295 294 293 292 292 292 293 292 290 288 288 288 288 288 288 287
296 296 296 296 297 297 298 298 299 299 299 300 300 301 301 301 301 302 303 305 306 307 309 310 312 314 315 316 317 319 321 320 316 313 311 309 307 306 305 303 302 301 301 301 302 302 299 297 296 296 295 294 293 293 293 294 296 296 294 294 295 294 293 293 294 293 290 288 288 288 288 288 287 288
295 295 295 296 296 297 297 298 298 298 299 299 299 300 300 300 301 301 301 302 304 305 307 309 311 314 316 316 316 317 319 321 318 312 309 307 306 305 305 303 301 300 300 300 301 301 298 296 296 295 294 294 293 293 293 295 296 294 293 295 297 296 294 294 294 292 289 288 288 288 288 288 289 289
294 294 295 295 295 296 296 297 297 298 298 298 299 299 300 300 300 300 301 301 302 304 306 308 310 313 316 317 317 318 319 321 319 313 310 308 306 305 306 304 301 299 299 299 299 299 298 296 295 295 294 294 293 293 294 295 295 293 293 296 297 296 294 294 293 290 288 288 288 288 289 290 291 291
293 293 294 294 295 295 295 296 296 297 297 298 299 299 300 300 300 300 300 301 301 303 306 309 311 313 316 317 318 318 320 321 320 316 313 310 307 306 306 305 301 300 299 298 298 298 298 296 295 295 295 295 294 294 294 294 294 294 294 296 297 295 294 294 292 289 288 289 290 290 291 291 291 291
292 292 293 294 294 295 295 296 296 296 296 297 298 298 299 299 300 300 300 301 301 303 306 309 310 312 314 316 317 318 320 321 320 318 315 312 310 308 307 305 303 303 302 300 298 298 298 297 296 296 297 297 295 293 294 294 294 295 296 297 296 294 294 293 290 289 290 291 291 292 292 292 291 292
291 292 292 293 294 294 295 296 296 296 296 297 297 297 298 298 299 299 300 300 301 302 303 304 306 307 310 313 316 317 320 321 319 317 315 313 312 310 309 306 304 304 304 302 300 299 298 297 296 296 297 297 295 293 293 294 295 296 297 296 295 294 293 291 290 290 292 292 292 292 292 292 292 292
291 291 292 292 293 294 295 296 296 296 297 297 297 297 297 298 298 298 299 299 299 300 300 301 302 303 306 311 315 317 319 320 319 317 315 313 312 311 311 309 307 306 305 302 300 299 298 297 297 297 297 297 295 294 293 293 295 296 296 295 295 293 291 290 291 292 293 292 292 293 293 293 293 292
291 291 291 292 292 293 294 295 296 296 297 297 297 297 297 297 298 298 298 298 298 299 299 299 300 301 304 309 315 317 318 319 318 317 314 313 312 311 310 310 309 308 306 304 301 300 299 299 297 297 297 297 295 294 294 293 294 296 295 295 295 293 291 291 292 293 293 293 293 293 293 293 293 292
291 291 291 291 292 292 293 294 295 296 296 296 297 297 297 297 298 298 298 298 298 298 298 299 299 301 303 308 313 317 318 318 315 314 313 311 311 310 309 308 307 306 305 305 303 300 300 300 299 297 298 298 296 294 294 295 295 295 296 295 294 293 292 293 293 293 293 293 293 293 293 292 292 292
290 290 290 291 291 291 291 292 293 294 295 295 296 296 297 297 297 297 297 298 298 298 299 299 300 301 303 307 312 316 316 315 312 310 310 310 309 309 308 307 306 305 305 305 302 300 300 301 300 298 298 298 297 296 296 295 295 296 296 295 294 294 294 294 294 294 293 293 293 292 292 292 292 292
289 290 290 290 290 290 291 291 292 293 294 294 295 295 296 296 297 297 297 298 298 298 299 300 301 302 304 308 311 313 313 312 310 309 309 309 308 307 307 305 304 304 304 303 302 300 301 301 301 298 298 298 299 298 297 296 295 295 295 295 294 294 294 294 294 293 293 293 293 292 292 292 293 292
289 290 290 290 290 291 291 291 291 292 292 293 294 295 295 296 296 297 297 298 298 299 300 301 302 304 306 308 310 310 310 309 308 309 309 308 306 306 306 304 301 301 301 301 300 300 301 301 300 298 298 298 298 298 297 296 295 295 295 295 295 294 294 294 293 293 293 293 292 292 292 292 292 292
289 290 290 290 291 291 291 291 292 292 292 293 294 295 296 297 297 298 298 298 299 300 301 302 304 305 307 308 308 308 307 306 306 307 308 307 305 305 305 302 299 298 299 299 299 300 300 300 299 298 298 298 298 297 297 296 295 295 295 295 294 294 294 294 293 293 293 292 292 292 292 292 291 291
289 289 290 290 291 291 292 293 293 293 293 293 294 295 296 298 299 300 300 300 300 301 302 304 305 306 306 305 306 305 304 304 304 305 306 305 303 303 303 300 297 297 297 298 298 299 299 299 299 298 297 297 297 297 296 294 294 294 294 294 293 293 293 293 293 292 292 291 291 292 292 291 290 290
289 290 290 291 291 292 293 294 294 294 294 295 295 296 297 298 299 300 301 301 301 302 303 305 305 305 304 303 302 302 302 301 301 302 304 303 302 302 300 297 296 296 296 297 297 297 297 297 297 295 295 295 295 295 295 294 294 293 293 293 293 292 292 292 292 292 291 291 291 291 291 290 290 290
290 291 291 292 292 292 293 294 295 295 295 296 296 297 298 298 299 299 300 301 302 303 304 305 304 304 303 302 301 300 300 300 300 300 301 301 301 300 299 296 295 295 296 296 296 296 296 295 294 293 293 293 293 293 293 294 293 293 293 292 292 292 291 291 291 291 291 291 291 291 290 290 290 289
292 293 293 293 294 294 294 295 296 296 296 297 297 297 298 298 299 300 301 302 303 304 304 303 302 302 301 300 299 299 299 298 298 298 298 298 298 298 297 295 294 295 295 294 294 295 295 294 293 292 292 292 292 291 291 292 293 293 292 291 291 291 291 291 291 291 291 291 291 290 290 289 289 289
293 294 295 296 296 295 296 296 297 297 297 298 298 298 299 300 301 301 302 303 304 304 304 303 301 300 299 298 297 297 297 297 296 296 296 296 296 296 295 294 293 294 294 293 294 294 294 293 293 292 292 292 292 290 289 290 291 292 292 292 291 290 290 290 290 290 290 290 290 290 289 289 288 288
292 293 295 296 297 297 297 297 298 298 299 299 299 300 300 300 301 302 302 303 302 302 302 301 299 298 298 297 296 296 295 295 295 294 294 294 294 294 293 293 293 293 293 293 293 294 294 293 292 292 292 292 291 289 288 288 289 289 290 291 290 290 289 290 290 290 289 289 289 289 289 288 288 288
290 291 292 294 296 297 298 298 298 299 299 299 299 300 300 300 300 301 301 301 301 300 300 299 298 297 296 296 296 295 294 294 293 293 293 293 293 293 293 292 292 292 292 293 293 293 293 292 292 292 292 291 290 289 288 288 287 287 288 288 288 288 289 289 290 289 289 289 289 289 288 288 288 287
289 290 291 292 293 295 297 298 298 298 298 298 298 299 299 299 299 299 299 299 299 298 298 297 296 296 295 295 294 294 293 293 293 292 292 292 292 292 292 292 292 292 291 291 291 291 291 292 291 291 292 291 290 289 288 287 287 287 287 286 286 287 288 288 288 288 288 289 288 288 288 288 288 288
289 289 290 291 292 293 295 296 297 297 297 297 296 296 297 297 297 297 297 298 297 297 296 295 295 295 294 294 294 293 293 292 292 292 292 292 291 291 291 291 291 291 291 291 290 290 290 290 290 290 291 290 289 288 288 288 288 287 287 287 287 287 287 288 288 288 289 289 288 288 288 288 288 287
288 289 289 289 290 292 293 294 295 295 295 295 295 295 295 295 295 296 295 296 296 295 295 294 294 294 293 293 293 293 292 292 291 291 291 291 291 290 290 290 291 291 290 290 290 290 291 291 291 291 290 289 289 289 289 288 287 287 288 288 288 288 288 289 289 289 289 288 288 288 288 288 287 287
288 288 288 289 290 290 291 292 293 294 294 294 294 294 294 294 294 294 294 294 294 293 293 293 293 293 292 292 292 292 291 291 291 290 290 290 290 290 290 291 290 290 289 289 289 290 290 291 292 291 290 289 290 290 289 288 288 288 288 289 289 289 289 289 289 289 289 288 288 288 288 287 287 287
287 288 288 288 289 289 290 290 291 292 292 292 293 293 293 293 292 293 293 293 293 293 292 292 292 292 292 292 291 291 291 290 290 290 290 290 290 291 291 291 290 289 288 289 289 290 290 290 290 290 290 290 290 290 288 288 288 288 288 289 289 289 289 289 289 289 289 288 288 287 287 287 287 287
287 287 287 288 288 289 289 289 290 290 291 291 291 291 291 291 291 292 292 292 292 292 292 291 291 291 291 291 291 290 290 290 290 290 290 290 290 290 290 289 288 288 289 289 289 289 289 289 290 290 290 290 290 289 289 288 288 289 289 289 289 289 289 289 289 289 288 288 288 287 287 287 287 287
Wind_Speed
24 24 24 25 26 26 25 25 25 26 28 28 27 26 23 16 8 5 5 5 7 11 14 15 17 18 18 19 24 28 31 33 31 32 35 35 33 33 32 33 37 39 38 36 34 33 32 30 29 27 26 25 24 23 21 20 19 17 16 16 15 13 11 10 9 9 9 9 8 7 6 5 4 5
24 24 24 24 25 26 26 27 26 26 27 28 28 28 28 24 16 10 6 6 10 12 14 16 18 18 19 18 20 25 31 35 34 34 36 36 33 33 34 34 36 38 37 36 35 35 33 32 31 28 27 27 25 23 22 21 19 18 17 16 15 14 12 10 10 9 8 8 7 6 5 5 4 5
24 24 25 25 25 26 26 27 27 27 27 27 28 28 28 27 25 20 12 6 12 17 16 18 19 18 18 18 19 24 32 36 37 36 36 35 33 33 35 36 35 37 38 38 36 35 34 34 32 30 29 28 26 24 23 22 20 18 17 17 15 14 12 11 10 9 9 8 7 6 5 4 5 5
24 24 24 25 25 25 26 27 28 28 28 28 28 28 28 28 27 26 19 9 12 21 22 20 21 20 20 19 18 23 29 33 36 38 38 35 34 35 36 37 36 36 38 39 37 35 35 35 33 32 32 30 27 26 25 23 21 19 18 17 16 14 12 11 10 9 9 8 7 6 5 5 5 5
24 24 24 24 24 24 24 25 27 29 29 28 29 29 28 28 28 27 22 14 13 21 23 22 21 19 20 20 19 22 26 29 33 36 38 36 35 37 38 38 38 38 39 40 37 34 36 36 34 33 34 32 29 27 25 23 21 20 19 17 16 14 12 11 10 10 10 8 7 6 6 6 6 6
24 25 26 27 27 26 26 26 25 26 28 29 29 29 28 29 29 27 25 20 16 18 21 22 22 19 19 21 20 21 25 29 32 33 36 37 36 38 40 39 40 40 41 41 39 36 36 37 37 35 35 33 30 28 26 24 22 20 19 18 16 14 13 12 11 10 10 9 8 7 7 6 6 6
24 25 26 27 28 28 28 28 26 25 25 26 28 29 29 29 30 29 28 24 19 19 20 21 23 22 21 22 23 23 23 28 30 30 32 36 37 39 40 40 41 42 42 43 41 38 37 38 39 36 35 35 31 28 27 25 23 22 20 18 16 14 14 13 12 11 10 9 8 8 8 7 7 6
25 25 25 26 27 27 28 28 28 27 25 23 24 27 28 29 30 30 30 28 24 22 21 20 22 25 24 24 26 25 23 27 31 29 30 33 37 40 40 40 41 42 43 43 43 41 39 40 39 37 36 35 32 29 28 25 23 22 21 19 16 15 14 13 12 11 10 10 9 8 8 8 7 7
25 25 25 26 26 27 27 28 29 29 28 26 24 23 25 27 28 29 30 30 28 26 24 22 22 25 26 25 26 27 27 29 29 27 28 31 34 37 38 39 40 42 43 43 43 42 41 40 38 36 36 35 33 31 28 25 24 23 21 19 17 15 14 13 12 12 11 10 9 9 9 9 8 7
26 25 25 26 27 28 28 28 28 29 28 28 26 24 23 23 25 27 28 29 28 28 28 26 23 23 25 25 26 29 31 33 31 27 24 27 31 35 37 38 39 42 44 44 43 43 41 39 36 35 35 35 34 33 29 26 25 24 21 19 17 15 14 13 12 12 11 10 10 10 10 9 8 8
25 25 24 24 25 26 28 29 30 30 30 29 28 26 23 23 22 23 25 27 28 27 27 27 24 23 24 25 26 30 33 33 32 30 27 26 29 33 37 39 40 41 43 43 43 42 40 37 35 34 35 35 35 33 30 27 26 24 22 19 18 16 14 13 12 12 12 11 11 11 10 10 9 9
27 27 27 26 24 24 24 26 27 29 30 31 31 31 28 26 25 23 22 22 23 25 25 26 25 23 24 26 27 28 29 27 26 31 33 32 32 33 34 37 39 41 43 42 41 41 40 38 36 35 35 36 36 33 29 28 27 25 22 19 18 16 15 14 13 12 12 11 11 11 11 10 9 9
31 31 31 31 30 28 26 26 26 26 27 29 32 35 35 32 29 26 24 21 19 20 22 24 24 22 21 23 24 25 29 31 30 32 32 31 34 34 31 31 36 39 42 42 41 40 41 40 38 38 38 38 36 33 31 29 28 26 23 20 18 17 15 14 13 12 12 12 11 11 11 10 9 9
30 31 32 33 34 34 33 31 30 29 28 27 28 31 33 34 33 30 28 26 22 20 19 20 20 19 19 22 25 28 33 36 33 32 31 27 29 29 23 22 28 35 40 41 39 40 41 41 40 40 41 40 37 35 33 31 30 27 24 21 19 18 16 14 14 13 12 12 11 11 10 10 9 9
29 30 31 33 34 35 35 34 33 32 31 30 29 29 29 31 33 32 31 29 26 23 21 20 20 19 20 24 30 32 34 34 33 35 36 32 28 27 22 18 22 34 40 39 37 38 39 41 42 42 42 42 40 38 35 33 31 28 24 21 19 18 17 15 14 13 12 12 11 10 10 10 9 9
30 30 31 31 32 33 34 34 34 34 33 33 32 32 31 31 32 33 33 32 31 28 25 22 23 22 20 21 29 33 35 36 37 38 37 34 33 33 29 25 26 35 43 40 35 35 36 38 40 42 43 43 40 38 37 35 32 29 24 21 19 17 16 15 13 12 12 11 10 10 10 9 9 9
31 31 31 32 32 32 33 33 33 33 33 33 33 33 34 34 33 33 34 34 34 33 31 28 27 27 24 20 24 31 36 39 38 36 33 34 36 36 35 35 33 35 43 42 33 29 33 37 39 40 41 41 40 38 38 36 32 28 24 20 18 18 16 15 13 11 10 10 10 10 9 9 9 9
31 31 31 32 33 33 32 33 32 32 32 32 32 32 32 33 33 32 32 32 31 31 32 33 35 34 30 27 25 26 32 38 39 39 39 39 40 37 34 32 29 29 39 43 33 24 30 37 37 38 39 39 39 40 39 36 31 27 24 20 18 18 18 16 13 10 9 10 10 9 9 9 9 9
33 33 32 33 33 33 33 33 33 33 33 33 33 33 33 34 35 36 37 35 32 30 30 33 37 39 37 34 32 29 31 38 43 43 44 44 40 33 26 22 20 23 34 40 32 21 26 34 36 35 36 35 36 37 36 34 31 26 23 21 19 19 18 17 14 11 9 10 10 9 9 8 8 7
34 34 34 34 34 33 33 33 32 33 33 34 35 36 36 36 37 39 40 39 37 36 34 34 36 38 41 40 38 36 34 36 39 36 30 30 30 26 20 18 19 23 30 38 35 24 22 32 35 32 30 31 31 33 33 32 30 26 23 21 20 20 19 18 14 11 10 10 10 9 8 7 6 5
34 34 34 34 35 35 35 34 32 31 31 34 36 35 36 36 36 39 40 40 40 40 38 37 35 36 40 41 40 40 38 36 37 33 25 24 29 27 18 15 19 25 31 39 39 27 21 30 35 28 25 28 28 28 30 31 28 26 24 21 19 19 19 17 14 12 11 10 9 8 7 5 4 4
33 34 35 35 36 37 37 35 34 32 31 33 34 33 34 34 35 37 35 35 39 39 38 39 37 34 37 40 40 39 39 38 38 38 35 31 32 29 21 17 17 20 27 38 40 28 20 26 31 25 19 20 25 28 29 29 27 25 25 22 18 17 18 17 14 12 10 9 8 7 6 5 5 5
33 33 34 35 36 37 38 37 36 35 34 33 33 31 30 32 34 35 31 30 33 34 32 34 34 32 34 38 41 39 38 40 41 43 45 42 37 32 27 23 17 10 19 37 42 30 21 25 30 27 19 11 15 24 27 27 26 25 25 23 18 17 18 17 14 12 10 9 8 7 7 7 7 7
32 32 32 33 34 35 36 37 37 37 37 37 35 33 32 32 32 29 29 29 29 29 29 30 29 29 32 35 41 41 38 41 43 45 48 48 45 40 35 31 27 18 21 37 45 34 25 27 32 32 25 12 8 18 25 27 27 26 24 22 18 17 18 17 14 12 11 10 9 9 9 10 9 9
33 32 32 33 34 34 35 36 36 37 37 38 38 38 38 38 35 31 32 32 30 32 34 34 34 32 31 31 35 39 38 42 46 47 49 50 50 47 42 37 35 27 20 31 45 38 25 25 30 30 25 15 11 18 22 24 27 27 24 20 17 16 17 16 14 13 11 10 10 10 10 10 9 10
33 34 34 36 36 35 35 36 37 37 38 38 40 42 42 41 40 40 39 36 33 34 36 36 36 35 31 29 29 34 37 42 46 48 49 49 49 49 48 45 43 38 28 30 43 41 28 26 30 29 23 16 15 20 21 19 23 26 23 19 17 15 15 16 15 13 11 10 10 9 9 8 8 9
34 35 36 36 36 35 35 36 36 37 38 39 40 42 43 43 43 42 41 38 36 35 35 34 35 34 31 29 29 32 35 40 46 48 49 49 47 45 44 42 42 41 34 31 40 43 35 31 32 31 26 22 19 19 19 18 19 24 23 19 16 14 15 16 14 12 11 9 8 7 6 6 6 6
36 37 37 37 37 37 36 36 37 37 38 40 41 41 41 42 42 41 39 37 35 33 33 32 32 33 31 29 30 33 36 37 41 44 44 43 42 40 39 37 34 31 28 28 37 43 38 34 34 31 29 28 25 20 18 18 20 25 24 19 16 15 16 17 15 12 10 9 7 6 5 4 4 3
40 42 43 44 44 43 41 40 39 39 39 40 41 41 41 41 40 39 38 36 32 31 31 30 30 32 32 31 30 32 34 34 34 36 36 35 34 34 32 29 25 21 20 25 36 41 37 35 35 32 28 28 27 25 23 20 21 26 25 20 18 18 18 17 15 13 11 10 8 7 4 2 3 4
44 45 45 45 44 44 43 42 41 40 39 39 39 40 41 41 40 38 35 33 30 29 29 29 29 31 31 30 27 27 30 33 35 36 36 33 30 31 30 26 21 19 22 28 35 38 34 31 33 32 27 23 22 23 25 23 22 25 25 22 20 18 18 18 17 14 13 12 9 6 3 2 1 2
42 42 42 41 41 40 40 40 40 40 40 39 38 37 37 39 40 38 36 33 31 30 30 29 29 29 27 26 24 25 29 32 34 37 38 35 32 31 31 28 25 24 26 28 31 31 28 27 29 29 27 24 20 21 23 24 24 26 25 23 21 18 18 21 18 15 14 11 7 5 4 3 1 3
41 40 39 38 36 35 34 34 34 36 37 37 36 35 33 33 35 36 37 36 35 33 31 29 28 26 25 25 25 27 29 31 33 36 37 36 35 35 35 31 28 27 26 25 26 26 25 26 27 26 25 23 20 21 23 23 25 28 26 24 22 20 20 21 19 15 12 8 5 6 6 4 4 5
40 38 35 33 30 29 28 27 28 29 31 32 33 33 31 29 29 30 31 32 32 32 31 29 27 27 26 26 27 29 28 28 30 33 35 36 36 35 34 31 30 30 30 28 27 26 26 27 27 22 19 18 20 23 25 24 24 27 27 24 23 22 21 20 17 12 9 7 8 9 7 7 8 8
35 33 30 28 26 25 24 23 24 25 25 25 27 28 30 30 29 28 28 28 29 30 31 31 30 30 29 28 28 29 29 28 28 29 33 36 36 35 33 30 28 30 33 32 31 30 30 29 27 23 22 22 22 24 28 28 27 26 25 24 25 24 20 17 14 10 8 9 11 10 8 9 10 8
31 28 25 23 22 22 23 22 22 23 22 22 24 25 27 29 30 31 31 30 30 32 33 33 33 33 33 31 30 30 31 31 30 29 31 33 33 33 34 33 30 30 33 35 35 35 35 34 33 29 27 26 23 19 20 26 29 27 25 23 23 22 19 14 12 10 10 10 10 9 9 10 9 7
25 22 20 20 20 19 20 21 21 21 21 23 24 24 24 26 29 32 33 33 33 34 35 34 33 33 33 32 31 31 32 32 30 29 29 29 29 30 31 31 30 31 32 33 35 37 37 36 33 29 23 18 15 11 11 17 25 27 26 24 21 18 17 15 13 13 12 11 10 10 10 11 10 8
18 16 14 16 18 17 18 19 20 20 21 22 23 23 24 26 29 30 32 34 36 38 37 36 35 33 33 33 31 30 31 32 31 29 28 28 29 30 29 29 29 30 31 32 35 37 36 33 31 27 19 11 7 5 8 13 19 20 20 21 20 17 15 16 16 15 12 11 11 11 11 11 11 9
18 17 14 10 11 14 16 17 17 18 20 21 21 21 21 21 22 26 30 33 35 36 35 35 34 34 34 34 33 31 29 28 28 28 27 27 27 28 28 29 29 29 31 33 34 35 34 31 30 29 22 12 6 6 8 12 15 14 11 12 15 15 15 17 17 15 12 12 13 12 10 11 10 8
20 18 16 13 7 5 9 11 12 14 15 16 16 17 16 18 22 27 30 32 33 34 34 33 33 34 33 33 34 33 31 29 28 27 26 27 26 27 28 28 28 29 30 30 29 29 30 29 27 28 27 21 16 17 19 18 17 15 11 8 9 12 16 17 16 15 13 14 13 11 10 10 10 9
22 19 17 14 10 3 2 5 7 9 10 11 12 15 17 20 24 27 30 32 32 32 32 33 33 34 33 32 32 32 30 29 28 27 27 27 27 27 27 27 27 27 26 25 24 25 26 28 27 27 27 27 26 28 29 26 21 18 17 14 11 11 13 14 15 16 16 15 13 11 12 11 10 11
22 20 18 16 12 8 6 7 8 9 10 11 12 14 16 19 21 23 26 31 33 32 32 32 33 33 32 32 33 33 31 29 27 27 28 28 28 28 27 25 24 23 21 20 21 22 24 26 25 23 24 27 30 29 25 20 17 17 19 19 17 16 15 14 15 17 16 13 11 11 11 10 9 11
21 20 20 18 15 13 11 11 12 13 14 14 15 16 17 18 20 21 23 26 29 30 31 31 31 32 32 31 32 33 33 32 30 30 30 30 30 29 27 25 23 22 21 20 21 24 25 24 24 24 26 30 31 25 18 16 17 18 19 18 17 18 17 15 14 14 14 13 12 11 9 8 7 9
21 20 20 20 18 16 15 14 14 15 17 18 19 20 21 21 21 22 24 25 26 27 28 29 29 31 31 31 31 32 32 32 32 32 31 31 30 29 28 27 26 26 26 26 26 28 28 28 29 31 31 29 28 25 22 21 21 20 18 16 15 15 14 12 10 11 12 12 13 13 12 10 8 8
22 21 21 21 21 19 18 17 17 18 19 20 21 22 23 23 21 21 23 25 26 28 28 28 29 30 31 32 32 32 31 32 33 33 33 32 32 32 31 30 30 30 30 30 28 26 27 28 30 30 28 26 28 29 27 24 23 20 17 16 14 13 12 11 10 11 13 13 14 14 14 13 12 12
22 22 22 22 22 21 20 20 19 20 21 22 23 24 24 24 23 22 23 24 26 28 29 29 30 31 32 33 34 33 33 34 34 34 34 33 33 34 33 33 34 32 30 29 27 26 26 27 27 27 27 27 29 30 28 25 23 20 18 17 15 13 13 13 14 15 17 17 16 14 14 14 14 14
Wind_Direction
288 285 286 283 278 277 276 271 268 264 257 251 249 246 237 229 227 242 246 228 232 240 239 243 245 244 246 243 235 234 238 236 230 228 227 226 228 226 219 216 214 212 210 209 214 216 213 214 215 211 208 206 205 204 205 207 209 211 213 218 226 232 235 235 238 246 250 255 262 266 272 284 297 307
290 288 287 285 281 277 275 272 269 265 262 256 250 247 244 239 232 233 247 241 236 239 236 234 240 245 245 249 248 239 236 236 231 225 224 224 226 225 219 215 214 213 210 209 212 215 212 212 215 214 210 209 209 208 208 211 213 216 219 224 230 233 233 233 237 245 251 255 258 260 268 281 293 303
289 290 287 285 285 283 276 273 271 266 262 259 254 250 247 244 239 235 236 248 245 241 238 235 237 241 242 246 253 242 231 229 227 223 221 222 224 223 217 213 214 214 211 209 211 213 212 212 215 216 213 212 212 212 211 213 216 219 223 227 230 231 230 231 237 245 247 249 255 263 273 284 292 300
288 290 288 284 284 287 283 275 271 268 264 260 256 253 249 247 246 242 236 240 252 248 246 247 244 242 242 245 249 243 230 221 218 217 217 219 220 218 213 211 213 214 212 210 210 211 212 213 216 217 216 214 213 214 214 215 218 222 226 227 227 227 227 229 236 245 247 247 255 266 277 283 288 294
288 289 290 290 287 289 291 284 274 267 264 260 256 253 249 245 245 244 239 236 250 252 247 245 244 238 233 233 236 238 231 217 209 210 213 216 216 213 209 209 211 212 211 209 210 210 211 213 217 218 217 216 215 215 215 217 221 225 225 224 224 223 224 228 234 242 246 248 255 265 272 275 281 288
285 286 288 290 290 289 291 293 287 275 263 256 252 250 248 245 244 242 238 234 240 249 244 238 237 230 220 222 227 231 228 216 207 207 210 211 211 209 207 208 209 210 211 209 209 211 212 212 215 216 216 216 215 215 217 219 223 226 223 221 221 221 222 226 231 238 243 247 254 261 267 270 274 281
281 282 284 286 288 289 288 289 292 289 276 261 251 247 245 244 245 242 237 233 233 244 247 237 231 226 218 220 226 229 226 216 208 207 208 207 206 205 207 209 209 209 210 209 209 212 213 213 213 214 216 216 214 215 218 222 225 226 222 218 218 219 221 225 229 235 240 244 251 257 262 265 268 274
283 279 279 282 285 286 286 286 288 291 291 281 264 253 247 243 244 243 239 236 233 240 247 240 231 228 222 219 223 224 218 212 210 210 209 205 203 204 206 209 209 208 208 210 211 211 213 213 211 213 216 216 214 216 220 224 226 224 221 217 216 218 221 224 228 234 239 242 247 254 257 260 262 268
290 284 279 278 279 280 282 285 286 286 289 291 284 271 259 249 245 243 241 239 236 236 241 241 235 229 223 217 215 214 207 202 204 209 209 205 202 203 204 206 209 208 207 210 212 212 213 212 210 212 216 216 216 218 222 226 226 223 220 217 216 218 221 223 228 234 239 241 245 251 254 256 260 264
294 292 288 282 277 275 276 278 282 285 286 288 290 286 278 269 257 247 241 239 236 233 236 240 234 224 219 213 207 208 207 202 199 199 199 201 202 203 202 204 208 208 207 208 210 211 212 211 210 212 215 217 218 219 223 227 226 223 220 218 217 220 222 225 229 234 238 240 243 248 252 252 256 262
294 295 295 293 286 280 276 272 273 278 281 285 288 289 288 286 280 267 252 242 235 232 234 238 235 225 219 215 209 208 206 204 200 193 186 191 200 204 204 204 205 205 204 205 208 210 211 211 212 214 216 219 219 221 225 227 225 222 219 218 219 221 225 228 230 234 237 239 242 245 248 249 252 258
294 295 295 296 295 292 287 281 276 275 276 278 281 284 288 291 293 290 279 261 246 237 234 235 235 229 219 215 211 202 193 190 195 194 190 191 195 200 204 205 205 203 201 203 205 207 208 209 212 213 216 219 220 222 226 226 224 221 218 219 221 224 228 230 232 236 237 238 243 245 246 247 250 257
292 292 292 292 292 292 291 290 288 285 282 279 277 279 283 285 289 293 291 284 270 255 243 236 232 226 218 211 202 190 186 190 195 196 194 194 195 196 199 203 205 203 200 201 203 205 206 207 209 212 214 217 219 222 225 224 221 219 218 218 221 225 229 231 234 236 237 239 243 245 245 247 251 258
292 290 290 290 289 289 288 289 289 290 289 286 283 282 282 282 283 284 285 283 279 269 258 249 237 225 218 209 196 190 195 199 196 191 192 194 191 187 188 199 206 204 199 198 201 204 206 207 208 210 213 215 217 220 221 220 218 218 219 219 220 225 229 233 236 236 237 241 243 245 246 248 252 261
294 291 289 289 288 287 287 286 286 287 288 288 286 285 285 284 282 280 278 276 274 268 263 262 252 235 223 210 199 196 198 197 193 191 193 192 184 179 183 193 203 205 202 197 198 202 205 206 207 209 212 215 218 219 219 219 217 218 221 221 220 226 230 233 236 236 236 240 244 245 247 250 256 264
292 291 288 287 286 285 285 285 284 284 284 284 285 283 282 283 283 282 279 276 273 267 260 260 261 256 244 221 203 198 196 195 195 196 195 192 187 187 191 194 200 205 202 196 195 200 203 205 206 209 213 216 219 220 219 219 218 218 222 221 221 227 232 231 230 233 237 241 243 244 248 253 258 266
289 288 286 285 283 281 281 282 282 281 281 280 282 283 281 280 281 282 280 277 276 272 262 255 256 259 258 243 221 208 201 196 193 193 195 195 193 195 200 202 203 202 198 193 193 198 203 204 205 209 213 217 219 220 220 219 218 219 220 219 221 227 227 224 225 232 239 241 241 243 249 255 259 270
288 286 285 283 281 279 278 277 277 278 279 279 279 279 279 278 277 278 277 277 281 281 271 258 254 254 255 254 247 231 213 203 196 194 197 200 200 201 204 206 205 200 196 193 190 196 206 204 204 209 213 215 218 220 220 218 217 219 219 217 222 227 223 219 225 238 245 243 242 244 249 255 264 277
286 285 283 281 280 278 276 274 273 274 276 277 276 275 275 275 274 274 274 275 279 285 284 273 263 257 253 251 253 247 228 213 207 204 205 203 200 199 199 199 200 199 197 194 190 197 207 203 203 209 212 213 218 221 221 219 218 219 218 218 223 226 221 221 229 243 250 246 241 242 249 257 268 283
284 282 280 279 278 276 274 273 272 271 272 273 273 271 270 272 272 271 270 272 274 277 281 282 277 268 259 252 250 249 241 225 215 212 209 201 192 189 188 187 190 193 196 196 195 198 203 201 202 207 209 211 216 220 221 220 218 219 217 217 221 222 221 225 233 246 251 244 239 241 250 260 268 284
284 281 278 276 275 274 273 272 270 269 269 269 268 268 267 267 269 268 268 270 273 275 276 278 282 279 269 258 250 247 245 235 218 206 199 192 188 186 186 187 191 194 197 199 199 200 201 199 198 200 205 210 215 220 222 220 216 216 216 215 218 221 223 228 235 247 247 238 238 244 247 251 252 268
285 282 278 275 273 271 270 269 268 267 266 264 263 264 264 263 263 265 269 271 272 274 278 278 280 283 275 261 250 245 241 234 219 204 198 196 191 190 194 194 187 192 201 200 197 200 204 195 190 187 189 204 215 220 223 221 214 210 211 213 218 221 224 230 239 246 241 233 238 240 230 227 236 254
287 284 280 276 272 270 268 267 265 263 261 260 259 260 261 260 259 261 266 270 271 272 278 281 281 286 282 264 248 241 237 231 222 212 206 200 194 193 197 190 170 176 212 203 194 195 198 187 182 180 174 182 212 216 216 217 211 205 205 209 214 217 220 229 237 234 229 228 228 219 214 222 236 254
289 286 283 279 274 271 268 266 263 260 257 255 256 257 257 256 258 263 264 264 267 269 274 281 282 288 292 273 246 233 229 226 221 215 209 203 200 198 195 191 187 196 215 202 192 191 194 185 183 185 182 174 185 197 204 208 204 202 204 207 210 213 217 225 227 218 215 218 213 211 219 228 239 257
287 285 283 280 277 273 270 266 262 258 255 253 252 253 254 255 258 262 263 262 265 267 271 279 282 285 294 281 247 227 222 220 215 212 209 206 206 204 198 195 197 205 216 202 191 189 190 184 182 183 185 181 164 169 185 197 198 199 203 206 208 212 215 216 210 203 205 212 213 220 230 234 242 260
282 282 281 281 280 276 270 266 261 257 254 252 251 251 254 257 257 257 258 259 262 264 266 272 277 279 287 284 252 226 219 217 213 210 208 207 208 208 206 204 203 206 210 198 189 187 186 183 182 181 180 175 159 158 166 181 195 200 202 203 207 211 211 205 199 199 206 211 218 227 235 239 248 263
280 280 279 280 280 277 272 266 261 257 254 251 251 252 254 256 256 255 255 256 256 259 261 264 268 270 276 276 254 229 219 217 213 209 207 207 207 208 207 208 210 211 209 195 186 189 191 187 184 185 182 170 154 153 160 169 189 199 198 198 202 203 203 203 202 202 205 209 220 227 227 232 246 264
280 279 278 278 277 275 272 268 263 258 255 252 252 253 253 254 254 252 251 251 251 252 254 256 258 261 265 266 252 233 223 218 210 204 202 203 204 203 203 205 208 209 207 195 187 190 194 191 186 188 188 175 160 156 163 168 182 191 189 189 193 194 199 205 204 201 205 212 214 203 201 222 237 252
280 280 279 279 277 274 270 267 264 260 257 255 254 254 253 252 251 248 246 246 245 244 246 249 251 253 256 258 250 233 220 210 201 194 192 193 194 195 196 196 198 199 198 190 187 190 196 196 189 185 184 178 168 162 163 167 177 183 181 180 188 194 200 202 200 200 202 197 185 178 186 222 239 253
283 283 282 280 278 275 270 264 259 255 253 253 253 253 253 251 247 244 242 241 239 238 240 244 246 248 251 252 243 224 207 197 190 186 183 180 180 183 182 175 170 173 179 183 186 190 193 195 190 182 175 175 175 170 167 168 173 176 175 176 182 193 201 200 198 198 192 179 173 180 184 170 219 303
286 285 284 281 278 275 271 264 257 252 250 249 248 248 249 248 245 241 239 238 238 238 239 241 243 243 243 238 225 204 190 185 183 182 179 172 167 171 170 159 147 151 164 174 181 186 187 187 184 179 173 171 175 178 177 173 169 169 173 181 187 192 197 194 189 183 180 178 176 173 160 137 54 21
288 286 283 280 276 271 267 262 256 250 246 244 242 241 241 242 240 237 236 236 236 236 236 236 234 227 219 212 200 187 180 178 177 179 177 170 164 164 161 152 143 145 152 161 168 174 179 178 175 174 173 172 174 180 180 174 168 169 173 181 184 179 176 176 170 164 168 174 160 145 134 99 74 86
287 284 280 274 268 262 258 253 248 243 240 238 236 234 232 232 232 232 231 231 231 230 229 223 213 202 195 190 182 175 171 169 170 172 171 165 161 160 156 150 148 148 146 147 152 157 163 167 168 167 168 171 178 182 173 160 157 162 163 163 161 156 156 161 161 157 159 153 138 133 120 94 88 92
285 279 273 265 257 251 248 245 241 238 234 229 227 226 225 226 230 232 232 233 231 226 218 208 197 188 182 177 172 167 163 160 162 166 166 163 159 156 150 144 144 146 143 141 146 150 151 154 154 147 141 145 154 163 162 152 146 149 149 148 145 141 142 151 152 143 138 137 134 131 117 100 90 78
284 273 263 257 252 245 240 239 238 235 228 221 220 222 222 225 229 232 233 233 227 215 203 193 186 181 178 173 170 165 160 157 157 160 161 160 158 156 151 147 146 147 145 142 146 149 148 147 145 136 129 126 123 127 143 148 147 144 140 139 142 141 138 140 139 133 132 136 138 135 118 97 82 67
285 275 261 254 253 245 236 234 233 228 223 220 220 221 223 228 232 232 230 224 210 196 186 180 176 175 173 170 167 163 158 154 153 154 154 154 152 150 148 146 145 146 144 143 145 147 147 148 147 138 126 120 115 103 110 134 146 150 143 137 138 140 137 133 132 130 131 135 137 131 112 90 76 69
308 307 291 266 255 244 234 230 227 223 222 223 225 227 230 233 231 225 215 202 191 183 178 175 172 170 167 163 159 157 155 152 150 150 151 151 150 147 144 142 143 143 141 141 143 146 149 151 151 145 136 125 121 109 95 112 133 149 152 145 140 138 138 138 135 129 126 125 123 117 107 95 83 69
332 335 334 308 266 243 234 230 226 224 225 227 227 227 226 220 207 194 185 179 175 173 172 170 167 164 162 159 155 152 150 149 147 147 148 148 147 145 142 142 142 141 141 142 146 151 155 157 157 154 148 135 120 132 128 115 115 125 143 150 146 144 146 144 137 130 125 122 116 108 103 99 87 68
346 347 351 348 328 253 224 222 221 220 220 220 216 210 199 183 171 167 166 165 165 164 163 161 161 159 158 157 155 151 149 147 145 145 146 146 145 144 143 142 142 142 143 145 149 155 159 162 163 160 157 154 156 154 144 128 115 114 115 118 135 150 155 152 142 132 126 123 117 108 106 106 93 76
355 360 4 4 5 16 156 177 189 192 190 190 190 184 175 166 160 158 158 158 158 159 157 156 156 155 154 153 151 147 145 145 144 143 143 142 141 141 141 141 142 143 143 143 146 152 160 164 166 167 166 163 158 147 133 119 110 109 108 103 112 136 150 151 142 132 125 122 116 107 106 107 93 72
359 4 11 17 24 39 78 119 138 147 149 151 154 155 155 155 154 154 154 155 155 154 153 152 152 152 150 150 149 144 140 138 138 139 139 137 136 138 138 137 137 137 135 133 137 146 154 159 162 165 164 155 145 135 123 114 111 112 109 108 111 118 122 125 124 120 116 114 112 106 105 102 84 60
5 9 15 24 35 50 71 97 114 123 129 132 135 136 137 140 143 144 144 146 148 148 148 148 149 148 146 146 146 143 139 137 138 138 137 135 134 133 132 131 130 129 127 127 129 133 141 150 157 158 154 148 142 134 123 124 130 127 122 118 118 118 119 118 113 109 106 103 100 96 93 93 79 50
10 15 22 30 41 52 66 84 100 112 119 123 127 128 127 127 130 135 136 136 138 139 140 141 142 142 142 141 141 139 137 136 136 136 135 134 131 127 125 126 127 127 125 124 124 126 131 138 144 146 144 143 141 135 129 133 137 134 131 130 126 123 125 122 114 111 111 104 96 88 80 75 66 47
17 22 29 36 43 51 61 74 88 100 109 114 117 120 121 120 121 125 130 133 134 134 135 137 138 137 137 136 135 134 133 133 132 132 130 129 129 128 128 129 128 127 126 124 123 124 128 132 137 140 139 137 136 134 134 137 138 132 129 130 129 127 126 124 119 117 114 107 98 87 76 70 67 61
25 31 37 43 48 53 59 68 79 90 98 104 108 110 112 114 115 118 122 127 130 132 134 135 135 134 135 134 132 131 131 130 129 129 128 130 132 134 134 133 131 129 130 128 123 121 123 126 130 133 134 132 133 133 134 134 133 129 127 126 124 118 116 119 124 121 112 105 98 85 75 75 76 70